Wind_Speed
78 70 75 70 68 67 69 61 65 63 55 57 58 56 53 51 48 43 41 39 39 41 42 41 36 34 33 36 37 41 43 42 38 38 37 35 36 37 39 41 44 44 46 45
65 76 71 64 69 72 73 71 66 55 58 62 60 58 56 48 48 45 40 40 39 37 38 39 37 38 34 31 34 37 39 37 36 37 37 38 39 38 40 42 42 44 45 45
53 66 65 59 66 71 72 71 68 58 51 58 64 64 54 50 49 45 42 42 38 37 36 36 36 37 35 35 32 32 33 35 35 36 37 37 38 39 41 42 41 42 43 43
29 37 48 52 60 65 70 65 68 53 41 52 61 61 58 54 47 48 42 43 40 35 35 35 36 32 35 32 31 32 32 33 33 33 33 35 36 39 39 38 38 38 39 40
31 34 33 28 42 60 65 56 68 67 45 40 38 55 53 41 51 47 46 42 41 40 39 37 35 30 30 30 32 34 36 34 33 32 34 36 40 40 38 38 38 40 41 43
21 26 43 46 36 42 53 51 44 49 44 44 38 48 50 41 47 48 46 42 42 42 41 37 36 33 32 33 35 36 32 30 33 36 38 40 40 39 39 39 42 41 41 42
16 17 17 23 38 35 42 41 46 42 51 45 57 53 53 40 42 40 43 41 44 43 40 39 37 34 32 33 34 28 28 32 36 38 38 39 39 37 39 41 40 40 40 41
17 21 25 25 32 41 45 49 56 52 59 64 59 57 60 40 30 45 43 41 43 44 44 45 42 38 34 39 30 31 33 34 36 35 38 38 37 35 37 38 38 39 39 39
11 12 15 19 21 42 41 45 45 31 35 45 41 33 38 41 53 56 50 49 45 44 47 42 42 39 46 30 32 33 33 35 35 36 35 36 36 35 35 37 36 37 38 38
16 13 14 13 20 29 41 40 48 40 31 39 38 40 34 42 59 59 44 46 45 43 45 49 48 44 30 32 32 32 34 34 35 35 34 33 33 33 35 36 37 38 39 40
19 18 18 19 19 30 42 42 45 43 24 32 38 39 37 42 55 56 57 49 44 42 40 37 34 36 37 33 32 33 34 35 34 32 30 31 31 34 34 32 34 35 37 41
21 19 13 12 10 22 34 42 43 50 34 36 33 42 45 39 41 54 46 40 42 43 42 39 38 36 34 33 34 34 32 30 29 28 30 30 31 31 29 28 30 31 34 38
10 19 18 21 23 26 33 36 46 39 34 35 38 39 45 50 51 41 41 41 42 42 41 40 38 37 35 34 33 30 28 27 28 29 29 31 32 33 31 31 32 34 37 39
2 15 16 21 22 22 40 37 44 37 42 43 42 33 40 31 33 37 40 40 40 41 41 40 39 38 34 31 27 26 26 27 29 30 31 33 36 37 38 39 39 34 35 36
2 12 16 21 24 29 29 36 49 38 41 37 27 27 33 34 34 38 39 42 42 42 40 39 34 30 28 26 26 27 28 28 27 27 32 35 35 38 42 40 37 34 41 36
15 18 15 15 22 25 30 41 46 31 28 47 31 33 34 37 41 43 44 44 42 39 36 33 30 28 30 32 35 30 29 27 28 33 35 33 33 38 38 35 35 39 40 33
15 16 14 11 19 26 31 41 48 33 31 30 25 27 32 47 45 44 44 44 42 40 36 34 31 29 33 31 28 28 30 32 32 31 30 32 35 33 30 29 29 31 33 36
12 16 9 14 19 32 30 30 35 27 39 48 31 34 40 44 44 43 41 41 40 37 36 36 34 31 29 26 27 31 33 34 33 31 30 33 30 31 30 28 29 30 31 33
8 11 14 18 21 27 28 31 44 39 32 31 34 41 45 44 42 45 43 42 40 38 37 35 33 31 29 27 27 26 27 28 30 34 28 23 24 27 28 29 31 32 34 37
17 18 22 22 20 23 20 27 32 34 18 34 41 41 39 45 44 45 46 43 41 40 36 35 35 33 36 29 26 26 26 26 21 18 21 23 26 27 28 29 30 33 36 36
15 17 10 17 14 24 25 26 23 31 16 23 43 45 44 43 44 44 47 45 42 40 39 38 36 30 25 26 26 23 19 13 16 21 24 26 27 27 28 29 30 31 35 36
13 7 13 16 18 22 23 22 22 30 29 28 40 41 42 40 42 42 44 44 35 28 23 20 21 21 23 25 25 21 16 16 17 21 23 25 26 26 27 29 32 33 35 34
16 12 14 18 18 24 25 16 24 26 20 19 22 28 48 40 41 35 31 32 25 19 19 19 16 13 12 13 16 20 21 22 23 21 22 21 23 26 28 30 32 33 33 32
14 16 17 20 22 25 22 14 23 26 24 21 19 23 28 25 22 22 21 19 19 18 17 17 15 13 9 11 13 14 16 16 16 16 17 20 25 29 33 35 35 34 31 28
15 15 21 20 24 27 27 21 29 28 28 25 24 26 23 23 15 24 19 18 18 19 15 12 10 10 11 10 10 10 11 12 14 18 23 28 32 36 37 36 33 30 28 24
17 20 20 21 23 29 32 32 27 26 25 25 21 25 17 23 20 15 17 18 18 16 13 11 10 9 8 8 9 10 11 16 21 25 28 31 35 35 34 31 28 26 23 20
Wind_Direction
244 244 240 241 240 237 238 241 242 239 240 241 241 236 236 236 239 239 241 242 244 244 245 246 243 241 239 239 241 241 246 252 255 258 263 262 263 262 264 266 271 273 274 277
239 241 243 236 231 231 230 233 236 239 242 239 242 239 236 233 236 236 236 241 243 243 243 244 242 243 240 240 239 240 242 248 251 253 255 256 260 263 264 267 271 274 276 275
240 239 236 227 224 225 226 228 230 235 238 239 238 240 237 234 233 233 233 236 238 240 243 244 242 240 239 237 236 238 242 242 243 247 251 254 256 259 264 268 271 273 274 277
226 230 233 230 224 223 224 223 226 222 221 236 238 240 241 237 233 232 231 235 236 238 240 243 244 241 244 244 242 243 246 246 245 244 247 252 256 259 262 266 268 273 275 276
238 220 206 211 232 220 222 218 224 225 225 225 233 239 234 239 231 232 230 231 232 234 237 239 244 244 247 248 247 247 247 249 255 257 258 260 264 267 275 277 281 279 278 277
196 216 220 215 209 222 214 213 217 219 220 221 210 240 231 232 234 228 229 226 229 229 233 235 239 240 241 243 246 248 252 257 258 258 261 265 271 280 285 287 284 286 286 286
197 222 225 222 218 211 203 201 201 206 209 216 223 226 230 227 242 229 227 224 226 227 230 235 238 238 240 247 250 255 257 255 257 260 267 272 276 281 283 284 289 290 288 287
230 233 229 238 228 207 204 202 203 204 211 226 224 224 228 210 213 225 223 221 221 224 228 234 235 238 236 245 251 247 250 254 258 264 265 268 274 279 282 288 289 289 291 292
221 260 239 214 218 193 204 198 200 205 222 220 214 222 216 217 222 229 224 222 213 216 224 228 231 231 246 239 243 247 251 254 255 258 263 270 275 283 288 289 291 292 292 293
218 211 199 230 209 197 204 207 188 182 201 209 209 212 212 210 219 223 215 215 218 217 216 224 229 240 236 237 241 246 248 251 254 259 264 272 282 287 287 288 290 292 292 290
217 214 184 204 225 196 195 194 193 179 181 198 198 213 215 219 227 219 221 222 220 220 225 229 228 225 227 230 235 240 244 247 252 261 268 276 282 284 288 293 294 293 291 284
219 222 194 169 207 198 185 185 188 186 177 174 192 199 209 223 222 223 217 217 215 216 217 217 220 223 225 227 233 239 244 250 256 262 266 272 274 278 280 286 290 293 303 297
195 193 200 168 201 180 193 187 173 182 169 182 189 206 208 217 220 216 203 206 210 212 214 214 216 219 222 226 230 235 240 245 251 256 261 267 273 274 275 281 289 290 298 302
194 196 192 186 214 186 190 174 176 168 184 170 198 209 206 209 204 199 195 199 202 203 206 209 212 215 218 222 224 229 234 241 249 256 265 271 275 277 278 279 285 289 298 294
139 196 176 185 192 186 189 179 173 183 176 182 209 206 196 205 188 182 187 192 196 199 202 206 210 212 216 221 226 230 236 243 252 261 269 270 275 280 277 275 275 277 298 289
74 130 128 165 177 191 166 174 177 194 187 171 199 190 182 187 179 179 184 189 192 195 199 203 202 209 216 223 227 235 241 243 254 265 266 267 271 280 283 273 271 278 284 283
116 112 123 146 181 184 177 173 175 195 181 191 197 178 176 177 178 181 184 188 191 195 200 204 205 212 215 220 233 238 246 251 260 260 264 267 274 277 286 285 282 282 283 287
132 142 142 157 155 172 153 164 165 189 193 188 188 181 179 179 180 181 186 192 196 201 202 202 206 219 229 231 234 242 248 253 257 253 265 271 276 280 283 288 292 292 290 293
115 134 137 140 164 166 173 168 176 192 196 200 172 173 177 179 183 182 189 192 196 197 200 206 214 221 230 234 237 247 245 254 245 255 267 272 283 288 294 298 297 299 301 301
100 105 91 113 128 155 166 173 180 182 180 217 164 168 178 185 189 189 188 191 191 195 203 211 216 224 231 235 233 230 251 251 249 255 264 281 291 292 293 294 297 299 298 297
125 159 110 124 145 123 141 171 165 180 155 186 161 173 181 188 194 197 200 195 195 200 206 213 222 228 213 223 236 241 241 241 257 264 268 280 288 291 294 297 299 300 303 301
128 119 131 152 115 120 146 163 176 170 148 142 160 175 189 193 193 198 201 202 202 198 180 181 197 215 227 233 234 231 232 248 263 277 284 288 291 295 296 298 299 299 299 299
140 145 146 147 145 142 150 172 159 173 153 153 158 156 181 178 167 181 185 168 155 162 175 178 180 186 191 205 220 229 246 258 271 282 287 291 297 301 299 300 300 299 300 302
156 142 137 144 150 152 149 129 142 159 157 148 139 131 129 135 137 137 140 154 168 169 172 179 190 202 214 234 238 243 255 267 279 288 296 301 302 305 305 302 303 302 303 305
156 145 159 158 155 156 155 133 142 149 154 148 147 144 145 142 163 162 161 179 185 181 186 195 212 228 241 247 257 268 274 279 287 292 300 303 305 305 301 298 298 299 301 302
149 142 150 150 159 165 151 149 146 148 148 153 160 150 158 163 166 175 174 173 179 190 201 209 227 240 250 261 264 270 279 292 299 302 303 306 306 303 298 292 291 295 297 294
Height
5612 5611 5628 5655 5665 5680 5681 5685 5693 5703 5709 5713 5719 5727 5737 5742 5748 5757 5761 5766 5771 5777 5782 5788 5793 5798 5802 5806 5811 5814 5819 5822 5828 5830 5832 5832 5832 5834 5834 5834 5833 5832 5831 5830
5581 5592 5625 5634 5638 5648 5659 5671 5682 5692 5696 5703 5707 5715 5724 5734 5741 5749 5756 5762 5765 5770 5775 5779 5786 5789 5795 5799 5803 5808 5812 5816 5820 5822 5824 5825 5826 5826 5826 5826 5827 5825 5825 5823
5568 5587 5605 5607 5617 5629 5642 5657 5672 5680 5684 5689 5698 5703 5716 5725 5731 5740 5749 5756 5761 5765 5769 5773 5777 5782 5788 5792 5798 5803 5806 5809 5812 5815 5816 5819 5818 5819 5819 5819 5820 5819 5817 5816
5563 5573 5583 5591 5602 5617 5628 5650 5655 5665 5674 5679 5685 5695 5702 5715 5725 5732 5741 5749 5755 5760 5764 5767 5770 5776 5780 5787 5791 5795 5799 5801 5804 5807 5810 5811 5812 5811 5812 5813 5812 5811 5809 5808
5559 5567 5574 5583 5589 5601 5619 5631 5639 5651 5664 5672 5677 5682 5700 5704 5715 5726 5734 5742 5748 5753 5757 5761 5765 5770 5774 5779 5783 5787 5790 5794 5798 5800 5800 5801 5801 5803 5804 5805 5805 5803 5801 5799
5547 5555 5560 5570 5582 5591 5607 5618 5630 5639 5654 5659 5672 5676 5689 5700 5711 5716 5724 5733 5740 5746 5750 5755 5759 5763 5768 5772 5775 5778 5785 5789 5791 5792 5793 5793 5794 5795 5796 5797 5793 5793 5791 5790
5548 5551 5554 5561 5569 5584 5594 5607 5618 5627 5636 5645 5663 5672 5685 5699 5697 5709 5716 5724 5732 5739 5745 5749 5752 5757 5761 5765 5768 5776 5780 5781 5783 5784 5786 5786 5787 5789 5788 5786 5785 5784 5782 5780
5545 5549 5552 5555 5560 5573 5583 5593 5603 5614 5624 5645 5656 5657 5670 5686 5692 5696 5707 5717 5724 5731 5737 5741 5746 5751 5755 5756 5766 5769 5771 5775 5776 5778 5778 5779 5780 5780 5779 5778 5776 5774 5772 5771
5545 5547 5547 5551 5555 5565 5579 5585 5602 5621 5630 5640 5648 5659 5669 5673 5680 5688 5699 5706 5714 5722 5728 5736 5740 5743 5746 5754 5758 5762 5765 5768 5769 5770 5771 5770 5771 5771 5770 5768 5766 5765 5764 5762
5543 5541 5544 5550 5554 5561 5571 5585 5594 5607 5623 5631 5645 5653 5659 5666 5670 5680 5690 5697 5705 5713 5720 5724 5729 5736 5745 5746 5750 5754 5758 5760 5761 5762 5762 5763 5764 5763 5763 5761 5759 5757 5755 5754
5540 5540 5542 5546 5548 5552 5563 5574 5588 5604 5612 5626 5640 5649 5656 5658 5662 5668 5681 5692 5701 5708 5716 5723 5729 5732 5736 5739 5743 5749 5751 5753 5754 5755 5756 5756 5756 5756 5755 5754 5752 5750 5748 5747
5535 5536 5537 5543 5549 5554 5560 5568 5582 5593 5608 5616 5640 5639 5641 5650 5653 5663 5680 5688 5695 5701 5708 5714 5721 5726 5729 5734 5738 5741 5744 5747 5748 5750 5750 5751 5750 5750 5750 5748 5746 5745 5742 5740
5534 5537 5539 5542 5549 5552 5559 5569 5580 5593 5607 5617 5628 5627 5631 5639 5649 5660 5670 5679 5688 5696 5703 5709 5714 5719 5723 5728 5732 5736 5739 5741 5743 5744 5745 5745 5745 5745 5744 5742 5740 5738 5736 5731
5535 5536 5540 5545 5548 5553 5551 5567 5580 5590 5598 5609 5615 5622 5628 5637 5646 5655 5664 5674 5682 5690 5697 5704 5709 5714 5719 5724 5728 5731 5733 5736 5738 5740 5740 5739 5739 5738 5736 5735 5733 5731 5729 5725
5533 5535 5538 5543 5548 5557 5564 5570 5578 5589 5601 5608 5607 5617 5626 5636 5643 5651 5661 5669 5678 5685 5692 5699 5705 5711 5716 5720 5723 5726 5729 5731 5733 5734 5734 5734 5732 5730 5728 5727 5725 5723 5721 5718
5535 5535 5541 5544 5549 5556 5565 5574 5580 5588 5590 5606 5607 5608 5621 5632 5640 5649 5658 5667 5675 5683 5690 5696 5702 5707 5712 5715 5718 5721 5725 5726 5728 5728 5728 5727 5725 5723 5720 5717 5717 5715 5714 5713
5544 5543 5547 5548 5552 5557 5567 5574 5583 5586 5597 5598 5596 5604 5619 5628 5637 5647 5656 5664 5672 5679 5686 5693 5699 5704 5708 5712 5716 5718 5720 5721 5722 5722 5721 5720 5720 5717 5715 5712 5710 5710 5709 5707
5549 5549 5551 5552 5555 5562 5569 5575 5587 5592 5592 5596 5595 5609 5620 5629 5636 5646 5655 5663 5670 5678 5685 5690 5695 5700 5705 5709 5711 5712 5713 5715 5716 5716 5716 5715 5714 5713 5711 5708 5706 5704 5701 5698
5553 5554 5555 5557 5559 5567 5573 5579 5584 5587 5592 5597 5602 5610 5621 5630 5638 5645 5653 5661 5668 5675 5682 5688 5693 5697 5700 5703 5705 5706 5707 5708 5710 5710 5711 5711 5709 5707 5704 5701 5698 5695 5692 5689
5560 5560 5563 5563 5567 5569 5575 5581 5584 5589 5595 5598 5602 5615 5624 5630 5637 5645 5651 5659 5665 5672 5679 5684 5689 5692 5695 5698 5699 5702 5703 5703 5704 5706 5706 5705 5703 5700 5698 5695 5692 5689 5686 5682
5565 5560 5554 5570 5570 5564 5577 5583 5589 5595 5600 5601 5607 5617 5622 5629 5638 5645 5651 5658 5663 5669 5674 5679 5683 5688 5691 5693 5696 5698 5698 5699 5700 5701 5700 5698 5696 5694 5692 5689 5686 5683 5678 5674
5569 5568 5570 5573 5570 5578 5583 5588 5593 5598 5602 5605 5612 5617 5622 5629 5635 5642 5649 5655 5662 5667 5673 5677 5682 5685 5688 5690 5692 5694 5695 5696 5696 5696 5695 5693 5691 5688 5686 5684 5680 5676 5671 5667
5574 5575 5576 5579 5581 5584 5587 5585 5593 5602 5608 5610 5617 5620 5624 5634 5636 5642 5650 5656 5662 5668 5672 5677 5680 5682 5684 5686 5688 5690 5691 5692 5691 5690 5689 5687 5685 5683 5680 5677 5673 5668 5663 5658
5577 5579 5580 5583 5586 5589 5593 5593 5597 5604 5611 5617 5620 5625 5631 5637 5642 5647 5653 5659 5664 5668 5671 5675 5679 5681 5683 5685 5686 5687 5687 5687 5686 5685 5684 5683 5680 5677 5673 5670 5666 5662 5656 5652
5580 5582 5584 5586 5590 5594 5597 5600 5605 5610 5616 5621 5625 5630 5635 5641 5644 5647 5654 5660 5664 5668 5671 5675 5677 5679 5680 5681 5682 5682 5682 5682 5681 5681 5679 5676 5672 5669 5666 5662 5658 5654 5650 5646
5583 5586 5589 5590 5595 5598 5603 5607 5612 5617 5621 5626 5630 5636 5639 5643 5648 5652 5657 5661 5665 5668 5671 5673 5675 5676 5677 5677 5678 5678 5678 5678 5677 5674 5671 5667 5664 5660 5656 5653 5650 5647 5643 5641